Regional Weather Roundup
Issued by NWS

Home | Current Version | Previous Version | Text Only | Print | Product List | Glossary Off
Versions: 1 2 3 4 5 6 7 8 9 10 11 12 13 14 15 16 17 18 19 20 21 22 23 24 25 26 27 28 29 30 31 32 33 34 35 36 37 38 39 40 41 42 43 44 45 46 47 48 49 50

707
ASUS43 KDMX 292303
RWRIA

WEATHER ROUNDUP FOR IOWA
NATIONAL WEATHER SERVICE DES MOINES IA
600 PM CDT FRI APR 29 2016

NOTE: "FAIR" INDICATES FEW OR NO CLOUDS BELOW 12,000 FEET WITH NO
SIGNIFICANT WEATHER AND/OR OBSTRUCTIONS TO VISIBILITY.

* - THESE STATIONS ARE NOT NWS STATIONS...THUS NOT UNDER NWS
QUALITY CONTROL.  THEY ALSO DO NOT REPORT WEATHER SUCH
AS PRECIPITATION OR FOG.

IAZ001>003-012>014-020>022-031>034-043>046-300000-
   NORTHWEST IOWA

CITY           SKY/WX    TMP DP  RH WIND       PRES   REMARKS
CARROLL *      CLOUDY    46  41  81 E14       30.06F
CHEROKEE *     CLOUDY    46  43  87 E10       30.08F
DENISON *      CLOUDY    46  41  81 E12       30.02F
LE MARS *      CLOUDY    48  39  71 E13       30.07F
ORANGE CITY *  CLOUDY    46  41  81 E10       30.07F
SHELDON *      CLOUDY    48  41  76 E12       30.06F
SIOUX CITY     CLOUDY    48  40  73 E13       30.05F
SPENCER        CLOUDY    49  38  65 E13       30.08F
STORM LAKE *   CLOUDY    46  41  81 E14       30.07S
$$

IAZ055>058-069>071-079>083-090>094-300000-
   SOUTHWEST IOWA

CITY           SKY/WX    TMP DP  RH WIND       PRES   REMARKS
ATLANTIC *     CLOUDY    48  43  81 E12       30.02F
AUDUBON *      PTSUNNY   46  43  87 E10       30.04F
CLARINDA *       N/A    N/A N/A N/A MISG        N/A
COUNCIL BLFS * CLOUDY    48  43  81 E16       30.00F
CRESTON *      CLOUDY    48  43  81 E13G20    30.03S
HARLAN  *      CLOUDY    48  43  81 NE13      30.05F
LAMONI         CLOUDY    50  44  80 NE15      29.99F
RED OAK *      CLOUDY    50  45  81 E13       30.01F
SHENANDOAH *   CLOUDY    50  48  93 E13       30.00F
$$

IAZ047>049-059>061-072>074-084-300000-
   CENTRAL IOWA

CITY           SKY/WX    TMP DP  RH WIND       PRES   REMARKS
AMES           CLOUDY    48  41  76 NE7       30.07S
ANKENY *       CLOUDY    50  43  76 NE10      30.06F
BOONE *        CLOUDY    48  41  76 E12       30.07R
CHARITON *     CLOUDY    50  43  76 NE10      30.04S
DES MOINES     CLOUDY    51  40  65 NE13      30.05F
GRINNELL*      CLOUDY    48  41  76 NE10      30.08R
KNOXVILLE *    CLOUDY    50  43  76 E8        30.04F
MARSHALLTOWN   CLOUDY    49  41  74 NE10      30.08R
NEWTON *       CLOUDY    48  43  81 E12       30.07S
PELLA *        CLOUDY    50  42  73 NE3       30.07F
$$

IAZ004>006-015-016-023>025-035-036-300000-
   NORTH CENTRAL IOWA

CITY           SKY/WX    TMP DP  RH WIND       PRES   REMARKS
ALGONA *       CLOUDY    48  41  76 E9G16     30.10F
CLARION *      CLOUDY    48  41  76 E10       30.10R
ESTHERVILLE    CLOUDY    49  41  74 E10       30.09S
FORT DODGE *   CLOUDY    46  37  71 E10       30.09S
MASON CITY     CLOUDY    49  40  71 E10       30.11S
FOREST CITY *  CLOUDY    46  37  71 E7        30.10F
WEBSTER CITY * CLOUDY    48  41  76 NE12      30.07S
IOWA FALLS *   CLOUDY    48  41  76 NE9       30.10S
$$

IAZ007>011-017>019-026>030-037>042-050>054-066-300000-
   NORTHEAST IOWA

CITY           SKY/WX    TMP DP  RH WIND       PRES   REMARKS
CEDAR RAPIDS   CLOUDY    49  42  77 NE10      30.08R
CHARLES CITY * CLOUDY    48  41  76 E7        30.11S
CLINTON *      CLOUDY    48  41  76 NE12      30.11S
DECORAH *      CLOUDY    48  39  71 E8        30.11R
MONTICELLO *   CLOUDY    48  41  76 E7        30.10S
OELWEIN *      CLOUDY    48  41  76 E8        30.11R
WATERLOO       CLOUDY    49  39  68 E8        30.10S
$$

IAZ064-065-067-068-078-300000-
   EAST CENTRAL IOWA

CITY           SKY/WX    TMP DP  RH WIND       PRES   REMARKS
DAVENPORT      CLOUDY    50  42  74 E9        30.09F
IOWA CITY      CLOUDY    50  42  74 NE9       30.10R
MT. PLEASANT * CLOUDY    54  46  76 E12       30.06F
MUSCATINE *    CLOUDY    52  43  71 VRB7      30.08S
QUAD CITIES    CLOUDY    51  41  68 E10       30.08S
$$

IAZ062-063-075>077-085>089-095>099-300000-
   SOUTHEAST IOWA

CITY           SKY/WX    TMP DP  RH WIND       PRES   REMARKS
BURLINGTON     CLOUDY    52  45  77 NE7       30.04F
FAIRFIELD *    CLOUDY    50  43  76 NE10      30.06S
FORT MADISON * CLOUDY    52  46  82 NE10      30.05F
KEOKUK *       CLOUDY    54  46  76 NE12      30.03S
OSKALOOSA *    CLOUDY    50  43  77 E9        30.06S
OTTUMWA        CLOUDY    50  42  74 E13       30.05S
WASHINGTON *   CLOUDY    52  45  76 E8        30.09R
$$

ABBREVIATIONS USED IN REMARKS
   TC - TEMPERATURES IN CELSIUS
  WCI - WIND CHILL INDEX
   HX - HEAT INDEX
  VSB - VISIBILITY
$$





USA.gov is the U.S. government's official web portal to all federal, state and local government web resources and services.